Location: Honolulu
(21.3069°N, 157.8583°W)
Time: 06:28:35
(UTC-10:00)

A-11 Canister half - Pass Details

Date: 14 May 2026
Orbit: 1524 x 1684 km, 47.3° (Epoch: 5 June)

Event Time Altitude Azimuth Distance (km) Brightness Sun altitude
Rises 00:31:38 0° 318° (NW) 4,884 12.0 -50.0°
Reaches altitude 10° 00:34:50 10° 322° (NW) 3,912 11.4 -50.0°
Enters shadow 00:40:30 38° 338° (NNW) 2,379 10.1 -49.9°
